#timestamp,LO_Frequency,Hit 
1504882815.9,286046996.8,N
1504882835.7,286046998.3,N
1504882855.6,286046996.7,N
1504882875.4,286046997.2,N
1504882895.2,286046995.4,N
1504882915.1,286046994.3,N
1504882916.0,286046994.3,N
1504882935.8,286046994.2,N
1504882955.6,286046995.4,N
1504882975.5,286047000.0,N
1504882995.3,286047001.2,N
1504883015.1,286046999.7,N
1504883035.9,286047000.5,N
1504883055.7,286047000.6,N
1504883075.5,286046996.5,N
1504883095.3,286046997.8,N
1504883115.2,286047000.3,N
1504883135.0,286046999.2,N
1504883135.9,286046999.2,N
1504883155.7,286046994.9,N
1504883175.6,286046994.0,N
1504883195.4,286046996.3,N
1504883215.2,286046996.0,N
1504883235.1,286046997.0,N
1504883236.0,286046997.0,N
1504883255.8,286046998.9,N
1504883275.6,286047001.1,N
1504883295.5,286046998.4,N
1504883315.3,286046998.0,N
1504883335.1,286046998.4,N
1504883355.9,286046998.2,N
1504883375.7,286046999.0,N
1504883395.5,286046995.7,N
1504883415.3,286046996.5,N
1504883435.2,286046996.6,N
1504883455.0,286046999.5,N
1504883455.9,286046999.5,N
1504883475.7,286046995.8,N
1504883495.6,286046994.3,N
1504883515.4,286046997.1,N
1504883535.3,286046993.7,P
1504883555.1,286046997.4,N
1504883556.0,286046997.4,N
1504883575.8,286046999.1,N
1504883595.7,286046999.4,N
1504883615.5,286046996.5,N
1504883635.3,286046998.6,N
1504883655.1,286046996.8,N
1504883675.9,286047000.2,N
1504883695.7,286047000.4,N
1504883715.5,286047003.2,N
1504883735.4,286047005.9,N
1504883755.2,286047002.5,N
1504883775.0,286046995.0,N
1504883775.9,286046995.0,N
1504883795.8,286046998.0,N
1504883815.6,286047002.8,N
1504883835.4,286047000.5,N
1504883855.3,286047003.9,N
1504883875.1,286047000.0,N
1504883876.0,286047000.0,N
1504883895.8,286047004.4,N
1504883915.7,286047003.0,N
1504883935.5,286047005.9,N
1504883955.3,286047003.7,N
1504883975.1,286047000.2,N
1504883995.9,286047002.5,N
1504884015.7,286047001.5,N
1504884035.5,286047001.3,N
1504884055.4,286047002.1,N
1504884075.2,286047001.6,N
1504884095.0,286047006.8,N
1504884095.9,286047006.8,N
1504884115.8,286047008.6,N
1504884135.6,286047003.2,N
1504884155.4,286047007.0,N
1504884175.3,286047004.8,N
1504884195.1,286047007.0,N
1504884215.8,286047007.6,N
1504884235.7,286047004.6,N
1504884255.5,286047009.1,N
1504884275.3,286047008.5,N
1504884295.2,286047008.6,N
1504884315.9,286047006.8,N
1504884335.7,286047004.6,N
1504884355.6,286047006.5,N
1504884375.4,286047007.7,N
1504884395.2,286047010.7,P
1504884415.1,286047001.3,N
1504884416.0,286047001.3,N
1504884435.8,286047005.9,N
1504884455.6,286047007.6,N
1504884475.5,286047007.4,N
1504884495.3,286047002.4,N
1504884515.1,286046998.5,N
1504884535.8,286047000.8,N
1504884555.7,286047002.7,N
1504884575.5,286047004.7,N
1504884595.3,286047002.5,N
1504884615.2,286046998.3,N
1504884635.9,286046996.9,N
1504884655.7,286047000.8,N
1504884675.6,286046995.0,N
1504884695.4,286046996.8,N
1504884715.2,286046994.2,N
1504884735.1,286046994.3,N
1504884736.0,286046994.3,N
1504884755.8,286046996.1,N
1504884775.6,286046999.0,N
1504884795.5,286046997.4,N
1504884815.3,286046996.8,N
1504884835.1,286047000.8,N
1504884855.8,286047002.0,N
1504884875.7,286046992.7,N
1504884895.5,286046995.9,N
1504884915.3,286046996.1,N
1504884935.2,286046995.4,N
1504884955.0,286046993.6,N
1504884955.9,286046993.6,N
1504884975.7,286046995.9,N
1504884995.6,286046995.2,N
1504885015.4,286046995.4,N
1504885035.2,286046995.3,N
1504885055.1,286046997.7,N
1504885056.0,286046997.7,N
1504885075.8,286046995.6,N
1504885095.6,286047001.2,N
1504885115.5,286046998.6,N
1504885135.3,286047000.0,N
1504885155.1,286047003.4,N
1504885175.9,286047000.9,N
1504885195.7,286046999.6,N
1504885215.5,286046997.8,N
1504885235.4,286046996.6,N
1504885255.2,286046996.2,N
1504885275.0,286046999.6,N
1504885275.9,286046999.6,N
1504885295.8,286047000.0,N
1504885315.6,286047001.0,N
1504885335.4,286046999.5,N
1504885355.3,286046996.9,N
1504885375.1,286046999.2,N
1504885376.0,286046999.2,N
1504885395.8,286046999.0,N
1504885415.7,286046996.9,N
1504885435.5,286047000.7,N
1504885455.3,286046995.1,N
1504885475.1,286046997.5,N
1504885495.9,286047000.0,N
1504885515.7,286047000.9,N
1504885535.5,286046998.2,N
1504885555.4,286047000.8,N
1504885575.2,286047001.0,N
1504885595.0,286046999.7,N
1504885595.9,286046999.7,N
1504885615.8,286046998.3,N
1504885635.6,286046997.3,N
1504885655.4,286046999.2,N
1504885675.3,286046999.3,N
1504885695.1,286046998.6,N
1504885696.0,286046998.6,N
1504885715.8,286046995.2,P
1504885735.7,286046997.4,N
1504885755.5,286046998.4,N
1504885775.3,286046997.8,N
1504885795.2,286047000.7,N
1504885815.9,286046997.1,N
1504885835.7,286046997.4,N
1504885855.6,286046998.9,N
1504885875.4,286047002.7,N
1504885895.2,286046995.5,N
1504885915.1,286046999.6,N
1504885916.0,286046999.6,N
1504885935.8,286046999.9,N
1504885955.6,286047000.8,N
1504885975.5,286046997.3,N
1504885995.3,286046997.9,N
1504886015.1,286046995.0,N
1504886035.9,286046999.3,N
1504886055.7,286047000.8,N
1504886075.5,286047000.8,N
1504886095.3,286046998.1,N
1504886115.2,286046998.4,N
1504886135.0,286046997.8,N
1504886135.9,286046997.8,N
1504886155.7,286046994.6,N
1504886175.6,286046997.8,N
1504886195.4,286046995.5,N
1504886215.2,286046995.5,N
1504886235.1,286046993.6,P
1504886236.0,286046993.6,N
1504886255.8,286046999.2,N
1504886275.6,286046999.5,N
1504886295.5,286047000.6,N
1504886315.3,286046998.7,N
1504886335.1,286046998.3,N
1504886355.9,286047001.2,N
1504886375.7,286046996.5,N
1504886395.5,286046998.0,N
